(128318) = 2004 ER18

Discovered at Socorro on 2004-03-14 by LINEAR.

Orbit

Orbit type: Main Belt

Note: WebGL enabled browser required.

epoch2023-09-13.0
epoch JD2460200.5
perihelion date2020-03-05.20044
perihelion JD2458913.70044
argument of perihelion (°)231.87014
ascending node (°)47.53665
inclination (°)10.55098
eccentricity0.2450488
perihelion distance (AU)1.8269493
Tisserand w.r.t. Jupiter3.5
ΔV w.r.t. Earth (km/sec)9.0
semimajor axis (AU)2.4199569
mean anomaly (°)336.90178
mean daily motion (°/day)0.26181370
aphelion distance (AU)3.013
period (years)3.76
P-vector [x]0.15363146
P-vector [y]-0.83961189
P-vector [z]-0.52100792
Q-vector [x]0.97885146
Q-vector [y]0.20139517
Q-vector [z]-0.03591385
absolute magnitude15.85
phase slope0.15
uncertainty0
referenceMPO 777669
observations used960
oppositions17
arc length (days)11026
first opposition used1993
last opposition used2023
residual rms (arc-secs)0.73
perturbers coarse indicatorM-v
perturbers precise indicator003Ek
first observation date used1993-04-16.0
last observation date used2023-06-24.0
computer nameMPCLINUX
JD of orbit computation2456700.401719
perihelion JD uncertainty (days)6.0801E-05
argument of perihelion uncertainty (°)3.2097E-05
ascending node uncertainty (°)2.5918E-05
inclination uncertainty (°)9.5535E-06
eccentricity uncertainty 5.4980E-08
perihelion distance uncertainty (AU)1.3668E-07
Minimum Orbit Intersection Distances (in AU)
for orbit epoch: 2460200.5, reference: E2023-VP5
Mercury1.36662
Venus1.10836
Earth0.83161
Mars0.38442
Jupiter2.16698
Saturn6.09424
Uranus15.7303
Neptune27.0452

Observations

970 total observations over interval: 1993 04 16.61791 – 2023 06 24.173537
These data are available for download (format description).

Date (UT) J2000 RA J2000 Dec Magn Location Ref
1993 04 16.61791 13 03 10.71 +03 20 38.7 18.3   413 – Siding Spring Observatory MPS 150706
1994 12 01.07367 02 11 33.20 +12 55 11.4 19.7 V 691 – Steward Observatory, Kitt Peak-Spacewatch MPS 150706
1994 12 01.09277 02 11 32.42 +12 55 12.0   691 – Steward Observatory, Kitt Peak-Spacewatch MPS 150706
1994 12 01.11227 02 11 31.64 +12 55 12.6   691 – Steward Observatory, Kitt Peak-Spacewatch MPS 150706
2001 07 21.33255 22 11 29.23 -34 16 43.2 17.6   644 – Palomar Mountain/NEAT MPS 139332
2001 07 21.34304 22 11 28.84 -34 16 48.1 17.6   644 – Palomar Mountain/NEAT MPS 139332
2001 07 21.35463 22 11 28.49 -34 16 54.4 17.5   644 – Palomar Mountain/NEAT MPS 139332
2001 09 23.12731 21 27 41.02 -33 04 36.4 20.2   644 – Palomar Mountain/NEAT MPS 139332
2001 09 23.14868 21 27 41.02 -33 04 23.8 19.7   644 – Palomar Mountain/NEAT MPS 139332
2001 09 23.17100 21 27 41.05 -33 04 09.8 19.6   644 – Palomar Mountain/NEAT MPS 139332
2004 02 16.33039 11 26 27.42 +20 40 45.9 19.9   704 – Lincoln Laboratory ETS, New Mexico MPS 104356
2004 02 16.34263 11 26 26.81 +20 40 51.7 19.5   704 – Lincoln Laboratory ETS, New Mexico MPS 104356
2004 02 16.35422 11 26 26.29 +20 40 55.7 19.3   704 – Lincoln Laboratory ETS, New Mexico MPS 104356
2004 02 16.36595 11 26 25.57 +20 41 00.8 20.0   704 – Lincoln Laboratory ETS, New Mexico MPS 104356
2004 02 16.37755 11 26 25.02 +20 41 04.8 19.7   704 – Lincoln Laboratory ETS, New Mexico MPS 104356
2004 03 14.27732 10 59 04.58 +23 04 37.5 19.7   704 – Lincoln Laboratory ETS, New Mexico MPS 101307
2004 03 14.28797 10 59 03.93 +23 04 40.4 19.9   704 – Lincoln Laboratory ETS, New Mexico MPS 101307
2004 03 14.29881 10 59 03.15 +23 04 42.7 19.9   704 – Lincoln Laboratory ETS, New Mexico MPS 101307
2004 03 14.30953 10 59 02.49 +23 04 44.4 20.0   704 – Lincoln Laboratory ETS, New Mexico MPS 101307
2004 03 14.32029 10 59 01.73 +23 04 45.6 20.3   704 – Lincoln Laboratory ETS, New Mexico MPS 101307
2004 03 15.30676 10 57 58.80 +23 07 27.1 19.3   704 – Lincoln Laboratory ETS, New Mexico MPS 101307
2004 03 15.31749 10 57 58.14 +23 07 28.4 19.9   704 – Lincoln Laboratory ETS, New Mexico MPS 101307
2004 03 15.32830 10 57 57.41 +23 07 29.7 19.6   704 – Lincoln Laboratory ETS, New Mexico MPS 101307
2004 03 15.33898 10 57 56.70 +23 07 32.2 20.1   704 – Lincoln Laboratory ETS, New Mexico MPS 101307
2004 03 15.34975 10 57 56.02 +23 07 34.1 19.9   704 – Lincoln Laboratory ETS, New Mexico MPS 101307
2004 03 23.28507 10 49 55.41 +23 20 14.2 19.5   704 – Lincoln Laboratory ETS, New Mexico MPS 102293
2004 03 23.30982 10 49 53.99 +23 20 15.8 20.0   704 – Lincoln Laboratory ETS, New Mexico MPS 102293
2004 03 23.32086 10 49 53.34 +23 20 15.1 20.2   704 – Lincoln Laboratory ETS, New Mexico MPS 102293
2004 03 23.33198 10 49 52.69 +23 20 16.7 19.7   704 – Lincoln Laboratory ETS, New Mexico MPS 102293
2004 03 25.23559 10 48 06.86 +23 20 54.8 19.9   704 – Lincoln Laboratory ETS, New Mexico MPS 102293
2004 03 25.24657 10 48 06.17 +23 20 54.9 19.8   704 – Lincoln Laboratory ETS, New Mexico MPS 102293
2004 03 25.25754 10 48 05.57 +23 20 56.2 19.8   704 – Lincoln Laboratory ETS, New Mexico MPS 102293
2004 03 25.26848 10 48 04.97 +23 20 55.1 19.8   704 – Lincoln Laboratory ETS, New Mexico MPS 102293
2004 03 25.27934 10 48 04.34 +23 20 53.8 20.0   704 – Lincoln Laboratory ETS, New Mexico MPS 102293
2004 04 14.19102 10 34 58.58 +22 34 44.7 19.5   704 – Lincoln Laboratory ETS, New Mexico MPS 104356
2004 04 14.22318 10 34 57.79 +22 34 35.7 20.3   704 – Lincoln Laboratory ETS, New Mexico MPS 104356
2004 04 14.23391 10 34 57.62 +22 34 32.1 19.8   704 – Lincoln Laboratory ETS, New Mexico MPS 104356
2005 08 05.67877 01 15 40.53 -06 27 46.7 19.2 V E12 – Siding Spring Survey MPS 149520
2005 08 05.68773 01 15 40.68 -06 27 45.9 18.2 V E12 – Siding Spring Survey MPS 149520
2005 08 05.69648 01 15 40.78 -06 27 47.3 18.9 V E12 – Siding Spring Survey MPS 149520
2005 08 05.70529 01 15 40.96 -06 27 47.0 19.4 V E12 – Siding Spring Survey MPS 149520
2005 09 14.35398 01 01 54.22 -08 05 55.1 18.2 V 703 – Catalina Sky Survey MPS 141706
2005 09 14.36051 01 01 53.86 -08 05 56.3 18.4 V 703 – Catalina Sky Survey MPS 141706
2005 09 14.36708 01 01 53.40 -08 05 58.6 18.4 V 703 – Catalina Sky Survey MPS 141706
2005 09 14.37363 01 01 53.07 -08 06 00.6 18.4 V 703 – Catalina Sky Survey MPS 141706
2005 09 24.32348 00 51 38.34 -08 33 54.7 18.4 V 703 – Catalina Sky Survey MPS 142654
2005 09 24.33096 00 51 37.76 -08 33 56.0 18.4 V 703 – Catalina Sky Survey MPS 142654
2005 09 24.33846 00 51 37.33 -08 33 57.0 18.6 V 703 – Catalina Sky Survey MPS 142654
2005 09 24.34600 00 51 36.75 -08 33 57.8 18.4 V 703 – Catalina Sky Survey MPS 142654
2005 09 24.35587 00 51 36.04 -08 33 59.8 18.1 R 699 – Lowell Observatory-LONEOS MPS 142654
2005 09 24.37041 00 51 35.10 -08 34 00.8   699 – Lowell Observatory-LONEOS MPS 142654
2005 09 24.38497 00 51 34.14 -08 34 03.7   699 – Lowell Observatory-LONEOS MPS 142654
2005 09 24.39953 00 51 33.17 -08 34 05.2   699 – Lowell Observatory-LONEOS MPS 142654
2005 09 28.25571 00 47 17.93 -08 41 49.5 18.4 R 644 – Palomar Mountain/NEAT MPS 142654
2005 09 28.27860 00 47 16.34 -08 41 51.8 18.4 R 644 – Palomar Mountain/NEAT MPS 142654
2005 09 28.30044 00 47 14.83 -08 41 54.3 18.4 R 644 – Palomar Mountain/NEAT MPS 142654
2005 09 30.27053 00 45 03.23 -08 44 58.6 18.1 R 699 – Lowell Observatory-LONEOS MPS 143944
2005 09 30.29536 00 45 01.48 -08 45 01.0   699 – Lowell Observatory-LONEOS MPS 143944
2005 09 30.32017 00 44 59.81 -08 45 03.3   699 – Lowell Observatory-LONEOS MPS 143944
2005 09 30.34498 00 44 58.08 -08 45 05.0   699 – Lowell Observatory-LONEOS MPS 143944
2005 10 09.23157 00 35 17.34 -08 50 18.8 18.5 V 703 – Catalina Sky Survey MPS 143944
2005 10 09.23903 00 35 16.90 -08 50 19.9 18.6 V 703 – Catalina Sky Survey MPS 143944
2005 10 09.24645 00 35 16.33 -08 50 20.0 18.3 V 703 – Catalina Sky Survey MPS 143944
2005 10 26.19782 00 20 21.89 -08 17 22.8 19.1   704 – Lincoln Laboratory ETS, New Mexico MPS 146058
2005 10 26.20957 00 20 21.40 -08 17 18.5 19.8   704 – Lincoln Laboratory ETS, New Mexico MPS 146058
2005 10 26.22143 00 20 20.90 -08 17 16.2 19.4   704 – Lincoln Laboratory ETS, New Mexico MPS 146058
2005 10 26.23319 00 20 20.35 -08 17 14.1 19.3   704 – Lincoln Laboratory ETS, New Mexico MPS 146058
2005 10 26.24496 00 20 19.87 -08 17 11.3 19.5   704 – Lincoln Laboratory ETS, New Mexico MPS 146058
2005 10 31.22476 00 17 20.14 -07 57 04.2 19.6 R 644 – Palomar Mountain/NEAT MPS 147470
2005 10 31.24620 00 17 19.42 -07 56 59.0 18.9 R 644 – Palomar Mountain/NEAT MPS 147470
2005 10 31.26952 00 17 18.64 -07 56 52.8 18.7 R 644 – Palomar Mountain/NEAT MPS 147470
2005 11 03.20059 00 15 53.56 -07 43 01.5 19.3 V 703 – Catalina Sky Survey MPS 147470
2005 11 03.20654 00 15 53.35 -07 42 59.0 19.2 V 703 – Catalina Sky Survey MPS 147470
2005 11 03.21250 00 15 53.10 -07 42 56.3 19.6 V 703 – Catalina Sky Survey MPS 147470
2005 11 03.21846 00 15 52.99 -07 42 54.8 19.0 V 703 – Catalina Sky Survey MPS 147470
2005 11 15.17940 00 12 46.52 -06 32 36.5 19.4 R 644 – Palomar Mountain/NEAT MPS 150706
2005 11 15.20062 00 12 46.35 -06 32 28.1 19.3 R 644 – Palomar Mountain/NEAT MPS 150706
2005 11 15.22537 00 12 46.19 -06 32 17.7 19.8 R 644 – Palomar Mountain/NEAT MPS 150706
2008 03 01.37653 13 18 50.19 +04 45 49.4 20.2 R 683 – Goodricke-Pigott Observatory, Tucson MPS 241759
2008 03 01.38993 13 18 49.76 +04 45 52.8 20.0 R 683 – Goodricke-Pigott Observatory, Tucson MPS 241759
2008 03 01.40331 13 18 49.36 +04 45 53.3 20.2 R 683 – Goodricke-Pigott Observatory, Tucson MPS 241759
2008 03 02.37353 13 18 26.76 +04 49 08.2 19.8 R 683 – Goodricke-Pigott Observatory, Tucson MPS 241759
2008 03 02.38693 13 18 26.36 +04 49 10.0 19.8 R 683 – Goodricke-Pigott Observatory, Tucson MPS 241759
2008 03 02.40033 13 18 26.05 +04 49 11.8 19.6 R 683 – Goodricke-Pigott Observatory, Tucson MPS 241759
2008 03 06.36130 13 16 34.52 +05 03 06.3 19.1 R 683 – Goodricke-Pigott Observatory, Tucson MPS 244462
2008 03 06.37470 13 16 34.02 +05 03 11.0 20.2 R 683 – Goodricke-Pigott Observatory, Tucson MPS 244462
2008 03 06.38811 13 16 33.72 +05 03 14.5 19.7 R 683 – Goodricke-Pigott Observatory, Tucson MPS 244462
